GW6365 Weather Reports


time (UTC)temp
F
wind
direction
speed
knots
gust
knots
rain 1hr
in
rain 24hr
in
rain mn
in
humidity
%
barometer
mb
20260502151608 84 128 0.9 2.6 0.00 0.00 0.00 66 998.7
20260502151058 84 138 0.9 2.6 0.00 0.00 0.00 66 998.7
20260502150600 84 80 0.9 3.5 0.00 0.00 0.00 68 998.8
20260502130557 78 286 0.0 0.0 0.00 0.00 0.00 83 997.2
20260502130106 77 286 0.0 0.0 0.00 0.00 0.00 84 997.1
20260502123558 76 313 0.0 0.0 0.00 0.00 0.00 84 996.9
20260502123100 76 311 0.0 0.0 0.00 0.00 0.00 84 996.8
20260502122558 76 296 0.0 0.0 0.00 0.00 0.00 84 996.8
20260502122058 76 294 0.0 0.0 0.00 0.00 0.00 84 996.8
20260502121559 76 321 0.0 0.0 0.00 0.00 0.00 84 996.8
20260502121058 76 348 0.0 0.0 0.00 0.00 0.00 84 996.7
20260502120603 76 302 0.0 1.7 0.00 0.00 0.00 84 996.6
20260502115600 76 285 0.0 0.0 0.00 0.00 0.00 84 996.5
20260502115104 76 306 0.0 0.0 0.00 0.00 0.00 84 996.4
20260502114606 76 287 0.0 0.0 0.00 0.00 0.00 84 996.5
20260502114100 76 300 0.0 0.0 0.00 0.00 0.00 84 996.5
20260502113559 76 298 0.0 0.0 0.00 0.00 0.00 84 996.6
20260502113059 76 292 0.0 0.0 0.00 0.00 0.00 84 996.5
20260502112601 76 294 0.0 0.0 0.00 0.00 0.00 84 996.6
20260502112103 76 292 0.0 0.0 0.00 0.00 0.00 83 996.8
20260502111606 76 297 0.0 0.0 0.00 0.00 0.00 83 996.7
20260502111059 76 294 0.0 0.0 0.00 0.00 0.00 83 996.8
20260502110605 76 297 0.0 0.0 0.00 0.00 0.00 84 996.8
20260502110059 76 300 0.0 0.0 0.00 0.00 0.00 84 996.6
20260502105558 76 355 0.0 0.0 0.00 0.00 0.00 83 996.7
20260502105058 76 292 0.0 0.0 0.00 0.00 0.00 83 996.7
20260502104557 77 291 0.0 0.0 0.00 0.00 0.00 83 996.7
20260502104057 77 297 0.0 0.0 0.00 0.00 0.00 83 996.7
20260502103600 77 315 0.0 0.0 0.00 0.00 0.00 84 996.8
20260502103057 77 315 0.0 0.0 0.00 0.00 0.00 83 996.6
20260502102701 77 288 0.0 0.0 0.00 0.00 0.00 83 996.6
20260502102057 77 288 0.0 0.0 0.00 0.00 0.00 83 996.6
20260502101557 77 294 0.0 0.0 0.00 0.00 0.00 83 996.6
20260502101101 77 294 0.0 0.0 0.00 0.00 0.00 83 996.6
20260502100557 77 294 0.0 0.9 0.00 0.00 0.00 83 996.6
20260502091058 77 279 0.9 2.6 0.00 0.00 0.00 82 996.8
20260502090558 77 267 0.9 2.6 0.00 0.00 0.00 82 996.9
20260502090114 77 281 0.9 2.6 0.00 0.00 0.00 82 997.0
20260502071058 79 126 0.0 0.0 0.00 0.00 0.00 81 997.8
20260502070557 79 132 0.0 0.0 0.00 0.00 0.00 81 997.9
20260502070114 79 292 0.0 0.0 0.00 0.00 0.00 81 998.0
20260502065559 79 292 0.0 0.0 0.00 0.00 0.00 81 997.9
20260502065058 79 290 0.0 0.0 0.00 0.00 0.00 81 997.8
20260502064559 79 286 0.0 0.0 0.00 0.00 0.00 81 997.8
20260502064100 79 291 0.0 0.0 0.00 0.00 0.00 81 997.8
20260502063559 79 293 0.0 1.7 0.00 0.00 0.00 81 997.8
20260502063059 79 299 0.0 1.7 0.00 0.00 0.00 81 997.9
20260502062559 79 263 0.0 1.7 0.00 0.00 0.00 81 998.0
20260502062059 79 288 0.9 1.7 0.00 0.00 0.00 81 998.1
20260502061558 79 281 0.0 2.6 0.00 0.00 0.00 81 998.0
20260502061058 79 293 0.9 2.6 0.00 0.00 0.00 80 998.1
20260502060602 79 297 0.0 2.6 0.00 0.00 0.00 80 998.1
20260502060059 80 281 0.9 2.6 0.00 0.00 0.00 80 998.1
20260502060004 80 286 0.9 2.6 0.00 0.00 0.00 79 998.1
20260502055501 80 290 0.0 1.7 0.00 0.00 0.00 79 998.1
20260502055101 80 282 0.0 1.7 0.00 0.00 0.00 78 998.1
20260502054500 81 271 0.0 1.7 0.00 0.00 0.00 78 998.0
20260502054000 81 265 0.0 1.7 0.00 0.00 0.00 78 997.9
20260502053603 81 265 0.0 1.7 0.00 0.00 0.00 77 997.9
20260502053502 81 265 0.0 1.7 0.00 0.00 0.00 77 997.9
20260502053132 81 301 0.0 1.7 0.00 0.00 0.00 76 997.8
20260502053002 82 276 0.0 1.7 0.00 0.00 0.00 77 997.8
20260502052600 82 256 0.0 1.7 0.00 0.00 0.00 76 997.8
20260502052001 82 65 0.0 0.9 0.00 0.00 0.00 76 997.7
20260502051502 82 36 0.0 0.0 0.00 0.00 0.00 76 997.7
20260502051001 82 69 0.0 0.0 0.00 0.00 0.00 76 997.6
20260502050605 82 79 0.0 0.9 0.00 0.00 0.00 76 997.6
20260502050001 82 80 0.0 1.7 0.00 0.00 0.00 75 997.5
20260502045602 82 71 0.0 1.7 0.00 0.00 0.00 75 997.5
20260502045103 82 52 0.0 1.7 0.00 0.00 0.00 75 997.4
20260502044600 82 321 0.0 2.6 0.00 0.00 0.00 75 997.4
20260502044501 82 320 0.0 2.6 0.00 0.00 0.00 75 997.3
20260502044059 82 267 0.0 2.6 0.00 0.00 0.00 75 997.2
20260502043600 82 48 0.9 2.6 0.00 0.00 0.00 75 997.2
20260502043113 82 41 0.0 1.7 0.00 0.00 0.00 75 997.1
20260502042600 82 38 0.0 7.0 0.00 0.00 0.00 75 997.1
20260502042101 82 38 0.0 7.8 0.00 0.00 0.00 75 997.0
20260502041634 82 267 1.7 7.8 0.00 0.00 0.00 75 996.9
20260502041059 82 188 0.0 3.5 0.00 0.00 0.00 75 996.8
20260502040559 82 328 0.9 5.2 0.00 0.00 0.00 75 996.7
20260502040100 82 264 1.7 5.2 0.00 0.00 0.00 75 996.6
20260502035600 82 278 0.9 4.3 0.00 0.00 0.00 75 996.5
20260502035100 82 267 0.0 2.6 0.00 0.00 0.00 74 996.4
20260502034559 82 291 0.0 2.6 0.00 0.00 0.00 74 996.4
20260502034100 82 173 0.9 2.6 0.00 0.00 0.00 74 996.2
20260502033604 82 235 0.9 5.2 0.00 0.00 0.00 74 996.2
20260502033109 82 131 0.9 5.2 0.00 0.00 0.00 74 996.0
20260502032600 82 244 0.9 6.1 0.00 0.00 0.00 74 995.9
20260502032501 82 293 0.0 6.1 0.00 0.00 0.00 73 995.9
20260502032059 82 227 1.7 7.0 0.00 0.00 0.00 73 995.9
20260502031600 82 250 1.7 8.7 0.00 0.00 0.00 74 995.8
20260502031100 82 254 5.2 8.7 0.00 0.00 0.00 74 995.9
20260502030601 82 332 0.9 3.5 0.00 0.00 0.00 74 995.7
20260502030100 82 245 0.0 7.0 0.00 0.00 0.00 74 995.8
20260502030001 82 53 0.9 7.0 0.00 0.00 0.00 74 995.7
20260502025559 82 228 0.9 9.6 0.00 0.00 0.00 75 995.6
20260502025059 82 28 0.9 10.4 0.00 0.00 0.00 74 995.6
20260502024600 82 309 0.9 10.4 0.00 0.00 0.00 74 995.5
20260502024100 82 232 2.6 8.7 0.00 0.00 0.00 74 995.3
20260502023600 82 275 0.9 8.7 0.00 0.00 0.00 74 995.3
20260502023100 82 287 4.3 8.7 0.00 0.00 0.00 74 995.3
20260502022559 82 273 1.7 7.0 0.00 0.00 0.00 74 995.2
20260502022059 82 88 2.6 7.0 0.00 0.00 0.00 74 995.0
20260502021559 82 282 2.6 9.6 0.00 0.00 0.00 73 995.0
20260502021101 82 42 3.5 9.6 0.00 0.00 0.00 73 994.9
20260502020602 82 257 3.5 8.7 0.00 0.00 0.00 73 994.7
20260502020109 82 271 0.9 8.7 0.00 0.00 0.00 74 994.8
20260502020002 82 264 2.6 8.7 0.00 0.00 0.00 73 994.8
20260502015600 82 312 1.7 8.7 0.00 0.00 0.00 73 994.6
20260502015100 82 314 3.5 9.6 0.00 0.00 0.00 73 994.5
20260502014600 82 266 2.6 8.7 0.00 0.00 0.00 73 994.5
20260502014059 82 321 1.7 8.7 0.00 0.00 0.00 72 994.3
20260502013559 82 268 3.5 9.6 0.00 0.00 0.00 72 994.4
20260502013104 82 252 2.6 9.6 0.00 0.00 0.00 73 994.3
20260502012603 82 263 0.9 7.0 0.00 0.00 0.00 73 994.5
20260502012100 82 227 1.7 7.0 0.00 0.00 0.00 73 994.3
20260502011609 82 267 1.7 9.6 0.00 0.00 0.00 73 994.2
20260502011059 82 315 3.5 9.6 0.00 0.00 0.00 73 994.2
20260502010559 82 294 0.9 7.0 0.00 0.00 0.00 73 994.1
20260502010001 82 355 3.5 7.0 0.00 0.00 0.00 73 994.1
20260502005559 82 300 0.0 7.0 0.00 0.00 0.00 73 994.0
20260502005100 82 287 2.6 16.5 0.00 0.00 0.00 73 994.0
20260502004602 82 202 5.2 16.5 0.00 0.00 0.00 73 994.0
20260502004059 83 247 4.3 13.0 0.00 0.00 0.00 72 994.0
20260502003601 83 298 2.6 13.0 0.00 0.00 0.00 73 994.0
20260502003059 83 267 1.7 10.4 0.00 0.00 0.00 73 993.8
20260502002600 83 209 5.2 10.4 0.00 0.00 0.00 73 993.8
20260502002100 83 248 4.3 10.4 0.00 0.00 0.00 73 993.6
20260502001603 83 232 5.2 13.0 0.00 0.00 0.00 73 993.8
20260502001100 83 286 7.8 13.0 0.00 0.00 0.00 73 993.4
20260502000602 83 213 2.6 11.3 0.00 0.00 0.00 72 993.5
20260502000059 83 187 5.2 11.3 0.00 0.00 0.00 71 993.6
20260502000002 84 250 3.5 11.3 0.00 0.00 0.00 71 993.6
20260501235601 84 252 4.3 12.2 0.00 0.00 0.00 71 993.5
20260501235059 84 238 4.3 12.2 0.00 0.00 0.00 71 993.6
20260501234600 84 297 5.2 11.3 0.00 0.00 0.00 72 993.8
20260501234100 84 226 2.6 12.2 0.00 0.00 0.00 71 993.7
20260501233600 84 275 2.6 13.9 0.00 0.00 0.00 71 993.7
20260501233109 84 265 4.3 13.9 0.00 0.00 0.00 70 993.7
20260501232600 84 300 4.3 13.0 0.00 0.00 0.00 69 993.5
20260501232059 84 317 2.6 13.0 0.00 0.00 0.00 70 993.5
20260501231630 84 267 4.3 12.2 0.00 0.00 0.00 71 993.6
20260501231059 84 303 7.8 13.0 0.00 0.00 0.00 69 993.7
20260501230600 84 246 5.2 13.0 0.00 0.00 0.00 69 993.7
20260501230100 84 235 6.1 13.9 0.00 0.00 0.00 70 993.7
20260501225559 84 240 6.1 14.8 0.00 0.00 0.00 70 993.7
20260501225100 85 219 3.5 13.9 0.00 0.00 0.00 70 993.8
20260501224559 84 261 5.2 13.9 0.00 0.00 0.00 70 993.8
20260501224059 85 289 5.2 13.9 0.00 0.00 0.00 70 993.7
20260501223600 85 259 6.1 13.0 0.00 0.00 0.00 70 993.6
20260501223134 85 243 4.3 18.2 0.00 0.00 0.00 69 993.6
20260501222559 84 272 4.3 18.2 0.00 0.00 0.00 70 993.7
20260501222059 85 303 6.1 11.3 0.00 0.00 0.00 70 993.7
20260501221559 84 244 7.8 17.4 0.00 0.00 0.00 70 993.6
20260501221101 84 238 7.8 17.4 0.00 0.00 0.00 70 993.6
20260501220559 85 264 8.7 15.6 0.00 0.00 0.00 70 993.5
20260501220101 85 200 6.1 15.6 0.00 0.00 0.00 69 993.4
20260501215559 85 279 7.8 15.6 0.00 0.00 0.00 70 993.5
20260501215101 85 226 3.5 14.8 0.00 0.00 0.00 70 993.6
20260501214559 85 284 6.1 14.8 0.00 0.00 0.00 70 993.6
20260501214058 85 265 6.1 14.8 0.00 0.00 0.00 71 993.7
20260501213558 85 329 6.1 15.6 0.00 0.00 0.00 71 993.7
20260501213101 85 302 6.1 15.6 0.00 0.00 0.00 71 993.9
20260501212559 85 198 4.3 13.0 0.00 0.00 0.00 70 993.9
20260501212058 85 264 2.6 14.8 0.00 0.00 0.00 68 993.9
20260501211558 85 232 6.1 14.8 0.00 0.00 0.00 68 993.9
20260501211057 86 9 3.5 11.3 0.00 0.00 0.00 67 994.1
20260501210602 86 200 4.3 13.0 0.00 0.00 0.00 68 994.1
20260501210100 85 222 2.6 13.0 0.00 0.00 0.00 70 994.2
20260501205558 85 294 3.5 13.9 0.00 0.00 0.00 70 994.3
20260501205059 85 205 1.7 15.6 0.00 0.00 0.00 69 994.4
20260501204631 85 325 6.1 15.6 0.00 0.00 0.00 70 994.6
20260501204058 85 223 4.3 18.2 0.00 0.00 0.00 72 994.8
20260501203558 85 260 7.8 18.2 0.00 0.00 0.00 72 994.8
20260501203059 85 286 5.2 15.6 0.00 0.00 0.00 72 995.0
20260501202558 85 234 3.5 13.0 0.00 0.00 0.00 71 994.9
20260501202059 84 241 6.1 17.4 0.00 0.00 0.00 72 995.0
20260501201608 84 319 5.2 17.4 0.00 0.00 0.00 73 995.1
20260501201058 85 230 7.8 15.6 0.00 0.00 0.00 72 995.2
20260501200600 85 213 5.2 13.0 0.00 0.00 0.00 70 995.2
20260501200058 85 211 5.2 13.0 0.00 0.00 0.00 71 995.2
20260501195558 85 260 3.5 12.2 0.00 0.00 0.00 71 995.3
20260501195100 85 251 5.2 12.2 0.00 0.00 0.00 72 995.5
20260501194600 85 263 5.2 13.9 0.00 0.00 0.00 73 995.4
20260501194059 84 242 3.5 14.8 0.00 0.00 0.00 74 995.4
20260501193602 84 218 7.8 17.4 0.00 0.00 0.00 75 995.4
20260501193103 84 218 7.8 17.4 0.00 0.00 0.00 75 995.6
20260501192601 84 220 9.6 17.4 0.00 0.00 0.00 74 995.6
20260501192058 84 256 8.7 17.4 0.00 0.00 0.00 74 995.8
20260501191602 85 285 7.0 13.9 0.00 0.00 0.00 73 995.8
20260501191059 84 269 6.1 17.4 0.00 0.00 0.00 73 995.9
20260501190601 84 252 6.1 17.4 0.00 0.00 0.00 73 995.9
20260501190059 84 254 7.0 14.8 0.00 0.00 0.00 74 996.3
20260501190004 84 276 6.1 14.8 0.00 0.00 0.00 74 996.3
20260501185600 84 221 7.8 17.4 0.00 0.00 0.00 73 996.5
20260501185100 84 237 8.7 15.6 0.00 0.00 0.00 72 996.4
20260501184606 84 236 7.8 18.2 0.00 0.00 0.00 73 996.6
20260501184100 84 292 10.4 18.2 0.00 0.00 0.00 72 996.6
20260501183603 84 153 8.7 17.4 0.00 0.00 0.00 70 996.7
20260501183104 85 228 6.1 13.9 0.00 0.00 0.00 71 996.7
20260501182559 84 213 8.7 13.9 0.00 0.00 0.00 69 996.7
20260501182059 84 302 7.0 14.8 0.00 0.00 0.00 71 996.8
20260501181603 84 244 8.7 13.9 0.00 0.00 0.00 71 996.9
20260501181102 84 288 7.0 13.0 0.00 0.00 0.00 72 997.1
20260501180600 84 218 7.0 13.9 0.00 0.00 0.00 71 997.1
20260501180104 84 244 7.8 13.9 0.00 0.00 0.00 72 997.1
20260501175602 84 292 7.8 13.9 0.00 0.00 0.00 72 997.2
20260501175057 84 302 7.0 13.9 0.00 0.00 0.00 71 997.3
20260501174610 84 241 7.8 13.0 0.00 0.00 0.00 71 997.3
20260501174058 84 314 5.2 13.0 0.00 0.00 0.00 71 997.3
20260501173559 84 238 7.8 13.9 0.00 0.00 0.00 70 997.5
20260501173058 85 275 5.2 10.4 0.00 0.00 0.00 68 997.6
20260501172559 85 229 5.2 12.2 0.00 0.00 0.00 70 997.5
20260501172059 84 224 7.0 12.2 0.00 0.00 0.00 70 997.7
20260501171559 84 253 6.1 12.2 0.00 0.00 0.00 70 997.7
20260501171059 84 262 5.2 12.2 0.00 0.00 0.00 71 997.7
20260501170558 84 219 7.8 12.2 0.00 0.00 0.00 74 997.8
20260501165559 84 234 7.8 13.0 0.00 0.00 0.00 72 997.9
20260501165102 84 197 5.2 10.4 0.00 0.00 0.00 73 997.9
20260501164558 84 196 6.1 9.6 0.00 0.00 0.00 71 997.9
20260501164059 84 279 5.2 8.7 0.00 0.00 0.00 71 997.9
20260501163558 84 275 3.5 12.2 0.00 0.00 0.00 71 998.1
20260501163100 84 289 4.3 12.2 0.00 0.00 0.00 72 998.2
20260501162558 84 226 4.3 8.7 0.00 0.00 0.00 72 998.1
20260501162059 84 281 3.5 9.6 0.00 0.00 0.00 72 998.1
20260501161608 83 315 3.5 9.6 0.00 0.00 0.00 73 998.2
20260501161058 83 291 3.5 10.4 0.00 0.00 0.00 73 998.1
20260501160558 83 227 4.3 8.7 0.00 0.00 0.00 71 998.0
20260501160111 83 246 4.3 7.0 0.00 0.00 0.00 72 998.0
20260501155559 83 259 1.7 7.0 0.00 0.00 0.00 73 998.1
20260501155104 83 222 3.5 7.8 0.00 0.00 0.00 73 998.0
20260501154602 83 225 3.5 7.8 0.00 0.00 0.00 73 998.3
20260501154103 83 263 3.5 6.1 0.00 0.00 0.00 73 998.2
20260501153559 83 225 0.9 6.1 0.00 0.00 0.00 74 998.0
20260501153058 83 221 0.9 5.2 0.00 0.00 0.00 74 998.1
20260501152600 83 213 1.7 6.1 0.00 0.00 0.00 74 998.0
20260501152058 83 251 1.7 7.0 0.00 0.00 0.00 74 998.1